Satellite-Ground Cal/Val Site Overpasses Predictions

Prediction of Satellite NPP Overpassing Cal/Val Site: Antarctic Dome C

Ground Cal/Val Site Location: Latitude: -75.10, Longitude: 123.35; Satellite-Ground Site NADIR distance within 100 km.

Table of predicted overpasses for the next 14.0 days since TLE Epoch: 6/5/2020
Interval Starting Time Ending Time Minimum Distance Time Minimum Distance (km)
1 06/06/2020 07:24:47 06/06/2020 07:25:14 06/06/2020 07:25:01 39.05
2 06/08/2020 15:07:13 06/08/2020 15:07:21 06/08/2020 15:07:17 95.44
3 06/09/2020 14:48:13 06/09/2020 14:48:42 06/09/2020 14:48:27 15.78
4 06/11/2020 07:31:02 06/11/2020 07:31:31 06/11/2020 07:31:16 2.76
5 06/14/2020 14:54:27 06/14/2020 14:54:56 06/14/2020 14:54:42 20.54
6 06/15/2020 14:35:46 06/15/2020 14:36:00 06/15/2020 14:35:53 86.49
7 06/16/2020 07:37:17 06/16/2020 07:37:44 06/16/2020 07:37:31 33.45
8 06/17/2020 07:18:32 06/17/2020 07:18:50 06/17/2020 07:18:41 76.85


NCC Satellite Cal/Val Overpasses Prediction Service
